Vertical_Velocity
5 4 1 2 2 1 0 -0 -1 -1 -0 -0 -0 0 1 0 -0 0 2 2 2 3 5 3 2 1 1 1 0 -0 -0 1 1 1 1 0 0 0 0 -1 -1 -1 -1 -1 -0 0 0 1 1 2 2 0 -1 -1 0 4 8 9 4 2 2 3 -1 -5 -3 1 3 2 1 0 -0 -1 -1 -1 -1 -1 -0 -0 0 0 0 -0 -0 -1 -1 -0 -0 -0 -0 -0 -0 -0 -0 0 2 -0 -1 0 3 1 0 0 1
4 3 3 2 2 1 1 0 -0 -1 -1 -0 -0 -0 1 1 1 1 1 2 3 3 3 1 1 0 1 1 1 0 -0 0 1 1 1 0 0 0 -0 -1 -1 -1 -1 -0 1 1 1 1 2 2 2 -0 -1 -0 -1 2 6 9 9 4 2 1 -2 -4 -2 1 2 2 2 1 0 -0 -1 -1 -1 -1 -1 -0 0 0 0 -0 -0 -0 -0 -0 -0 -0 -0 -0 -0 -0 -0 0 0 -0 -1 -0 1 -0 -1 -0 2
2 3 2 1 1 1 2 1 1 0 -0 0 0 1 4 4 3 1 1 1 2 2 1 1 0 -0 -0 1 0 -0 -1 -0 -0 0 0 -0 -0 -0 -0 -1 -1 -1 -1 0 1 2 1 2 2 2 2 0 -1 -1 -0 0 1 3 7 7 4 -0 -5 -3 -1 1 2 2 1 1 0 -0 -1 -1 -1 -1 -1 -0 0 0 0 0 -0 -0 -0 -0 -0 -0 -0 -0 -0 -0 -0 -0 -0 -0 -0 -1 -0 -0 -0 -0 1
1 2 1 1 2 2 1 1 1 1 0 -0 -0 0 2 3 3 2 1 1 1 1 1 1 0 0 -0 0 0 -0 -1 -1 -1 -0 -0 -0 -0 -0 -1 -1 -1 -0 1 1 2 1 1 2 2 2 3 1 0 1 4 0 -2 -3 -1 6 8 5 -2 -3 -2 0 1 1 0 -0 -0 -0 -1 -1 -1 -1 -1 -1 -0 0 0 0 0 0 0 0 -0 -0 -1 -1 -1 -1 -1 -0 -0 -0 -1 -1 -1 -0 -0 -0 0
-1 0 0 2 3 3 1 1 1 1 1 0 -0 -0 -0 1 3 3 -0 0 0 1 1 1 1 1 1 0 0 -0 -1 -1 -1 -0 0 0 0 -1 -1 -1 -1 0 3 2 1 1 -0 1 1 2 3 1 -1 0 6 2 -0 -1 -2 1 3 5 3 -2 -1 1 1 0 -0 -0 -1 -1 -1 -1 -1 -1 -1 -1 -1 -0 0 1 1 1 0 0 -0 -1 -1 -1 -1 -1 -1 -1 -1 -1 -1 -1 -1 -1 -1 -1 -0
-1 -1 -0 1 2 2 1 1 1 2 2 1 1 1 1 1 1 1 0 -0 -0 0 1 1 1 1 1 0 0 -0 -0 -1 -0 -0 1 1 1 0 -0 -0 -0 0 3 1 0 -0 0 0 0 1 2 1 -0 -1 1 1 1 2 1 0 -2 -2 2 3 4 6 5 2 0 -0 -1 -1 -1 -1 -1 -1 -1 -1 -1 -1 -0 0 0 0 0 -0 -0 -1 -1 -1 -1 -1 -1 -1 -1 -1 -1 -1 -1 -1 -1 -1 -1
-3 -2 -2 -1 -1 -0 0 1 2 3 2 2 2 2 1 1 1 2 3 3 2 0 -0 0 1 1 1 1 0 -0 -0 -0 -0 -0 0 0 1 1 0 0 0 0 1 3 3 2 1 -0 -0 0 1 1 1 1 1 1 2 3 2 -0 -3 -4 -4 -2 4 10 10 5 2 0 -0 -0 -0 -0 -1 -1 -1 -1 -1 -1 -1 -0 0 0 0 -0 -0 -1 -1 -1 -1 -1 -1 -1 -1 -1 -1 -1 -1 -0 -1 -1 -1
-3 -3 -3 -2 -2 -1 -1 -1 -1 -0 1 1 1 1 1 1 1 2 2 2 3 2 -0 0 1 1 1 1 0 -0 -1 -1 -1 -0 0 2 2 1 1 1 1 0 -0 1 2 2 1 -0 -1 -0 2 3 3 2 1 1 2 3 2 1 4 4 -3 -3 3 8 7 4 2 0 -0 0 0 0 -1 -1 -1 -1 -1 -1 -1 -0 -0 -0 0 0 -0 -1 -1 -1 -1 -1 -1 -1 -1 -1 -1 -1 -1 -0 -1 -1 -1
-3 -3 -3 -3 -2 -2 -2 -2 -2 -2 -1 -0 -0 -0 1 1 2 1 0 2 3 3 0 1 1 1 1 0 -0 -1 -0 0 0 0 1 2 2 1 1 1 1 1 0 -0 -0 -0 -1 1 2 3 4 4 3 2 0 0 1 2 3 3 8 9 -1 0 2 3 4 2 0 -1 -1 -1 -0 -0 -1 -1 -1 -1 -1 -1 -1 -1 -0 -0 0 0 0 -0 -1 -1 -1 -1 -1 -1 -1 -1 -1 -1 -1 -1 -1 -1 -1
-2 -2 -2 -3 -2 -2 -2 -2 -2 -1 3 3 1 -1 -1 0 1 1 1 2 2 3 2 1 1 0 0 -0 1 3 6 5 3 2 3 1 0 0 -0 1 1 1 1 0 0 0 -1 0 2 3 4 3 3 1 -0 -0 1 2 3 3 5 5 1 2 1 1 4 4 2 -2 -3 -2 -1 -1 -1 -2 -2 -1 -1 -1 -1 -1 -0 -0 -0 0 0 0 -0 -1 -1 -1 -1 -1 -1 -1 -1 -1 -1 -1 -1 -0 -0
-1 -1 -2 -2 -2 -2 -2 -2 -2 -2 1 4 3 1 -1 -1 0 1 1 1 1 1 1 -0 -0 -0 -0 -0 1 4 8 6 4 3 5 1 -1 -1 -1 -0 1 1 1 1 0 0 -0 1 2 3 2 3 2 1 -0 -1 -1 0 2 3 2 1 -1 1 1 0 2 4 4 2 1 0 -0 -1 -2 -2 -2 -2 -2 -2 -1 -1 -1 -0 -0 0 1 0 0 -0 -1 -1 -1 -1 -1 -1 -1 -1 -1 -1 -1 -0 -0
-1 -1 -2 -2 -2 -3 -3 -3 -3 -3 -2 2 3 3 1 -0 -1 -0 -0 -0 0 0 1 0 0 -0 -0 0 1 2 3 1 0 0 3 2 1 1 0 0 1 2 1 1 1 0 -0 1 2 3 3 2 2 1 -1 -0 1 4 9 8 4 -0 -0 0 1 1 1 2 1 2 6 4 1 -1 -2 -3 -3 -3 -2 -2 -2 -1 -1 -1 -0 0 1 1 1 0 -0 -1 -1 -1 -1 -1 -1 -1 -1 -1 -1 -1 -0
-1 -2 -2 -2 -2 -2 -2 -3 -3 -3 -1 -0 1 3 2 -0 -1 -1 -1 -0 0 1 2 2 1 1 1 1 1 1 1 1 0 0 1 2 2 3 4 1 1 2 2 2 1 0 -0 1 2 3 3 2 1 0 -1 0 1 3 9 8 4 0 -1 0 2 4 3 2 1 2 3 3 1 -0 -2 -2 -3 -2 -2 -2 -2 -2 -2 -2 -1 0 1 1 1 1 0 -0 -1 -1 -2 -2 -2 -2 -2 -1 -1 -1 -1
-0 -1 -2 -2 -2 -2 -2 -2 -2 -2 -0 0 0 0 2 0 -0 -1 -1 -1 -0 0 1 2 2 1 1 1 1 1 1 1 1 1 1 1 1 1 1 1 1 2 2 2 1 0 -0 1 2 2 2 1 1 0 -0 1 1 2 5 4 2 1 -1 2 5 6 3 2 2 3 1 1 0 0 -0 -1 -2 -2 -1 -1 -1 -2 -2 -2 -1 -0 1 1 1 1 0 -0 -1 -1 -2 -2 -2 -2 -2 -2 -2 -2 -1
1 0 -1 -1 -1 -1 -1 -1 -1 -1 -1 1 1 0 1 2 1 0 -0 -1 -1 -1 -0 0 1 1 1 1 1 1 1 1 1 1 1 1 1 1 1 1 1 1 1 1 1 0 0 1 2 2 1 1 1 0 0 0 0 1 4 2 2 1 0 1 3 4 3 2 3 3 -0 -0 0 0 0 -0 -1 -1 -1 -1 -1 -2 -2 -2 -2 -1 -0 0 1 1 0 0 -0 -1 -1 -1 -1 -1 -2 -2 -2 -2 -2
1 1 0 -0 -1 -1 -0 -1 -1 -1 -2 1 1 0 0 1 3 3 1 -1 -2 -2 -1 -1 -0 0 1 1 1 1 1 1 1 2 2 1 1 1 1 1 1 1 1 1 1 1 1 1 2 1 1 1 1 1 1 1 1 1 -0 -0 1 2 2 0 0 1 3 4 5 4 1 -0 -0 0 1 0 0 -0 -0 -0 -1 -1 -3 -1 1 1 -0 -0 -0 0 0 0 -0 -1 -1 -1 -1 -1 -1 -2 -2 -2 -2
0 1 1 0 0 -0 0 0 -0 -1 -1 -1 -1 -0 1 1 2 3 3 0 -1 -2 -2 -1 -1 -0 0 1 1 1 0 1 1 1 1 2 2 2 1 1 1 1 1 1 1 2 2 2 1 1 1 2 2 1 1 1 1 0 -2 -1 0 2 3 1 -0 -1 1 4 4 3 1 -0 -1 -0 0 0 -0 -0 -0 -0 -0 -1 -3 2 5 6 1 -1 -1 -0 0 0 -0 -0 -1 -1 -1 -1 -1 -1 -1 -1 -1
-1 -0 -0 0 0 0 0 0 1 -0 -1 -2 -2 -1 -0 0 1 1 1 2 0 -1 -2 -1 -1 -1 0 1 1 1 0 0 0 0 1 2 3 3 2 2 1 1 1 1 2 2 3 2 1 1 1 1 2 2 1 1 1 0 -2 -2 1 3 5 2 0 -1 -1 2 2 1 0 -0 -0 -0 0 -0 -0 -0 -0 -0 -0 -1 -2 1 5 7 -0 -1 -1 -0 0 0 0 -0 -0 -1 -1 -1 -1 -1 -1 -1 -1
-1 -1 -1 -1 -0 -0 -0 0 0 0 -1 -2 -2 -1 -2 -1 -1 -0 -0 1 0 -1 -2 -1 -1 0 1 1 1 0 0 -0 -0 -0 -0 1 2 3 3 2 1 1 1 2 2 3 3 2 1 0 0 1 1 2 1 1 1 -0 -3 -2 2 5 6 4 1 -1 -1 0 0 0 1 1 0 -0 -0 -1 -1 -1 -0 0 -0 -0 -1 0 4 6 -1 -1 -1 -0 -0 0 0 0 -0 -1 -1 -1 -1 -1 -1 -1 -1
-1 -1 -1 -1 -1 -1 -1 -0 0 0 -1 -1 -1 -1 -1 -3 -2 1 4 1 0 -0 -0 -1 0 2 2 0 -0 -1 -1 -0 -0 -1 -1 2 4 4 2 2 2 2 2 3 3 3 3 2 0 -0 -1 -1 0 1 1 1 0 -1 -4 -2 3 7 7 6 3 1 -1 -0 -0 1 1 1 1 0 -1 -1 -1 -0 0 1 0 0 -0 -0 2 3 -1 -1 -1 -1 -0 0 0 0 0 -0 -1 -1 -1 -1 -1 -1 -1
-0 -0 -0 -0 -0 -0 -0 -1 -0 -0 -0 -1 -1 0 3 3 3 3 4 1 0 1 2 1 1 1 1 -0 -1 -1 -1 -0 0 1 3 5 4 3 3 2 2 3 2 2 2 2 1 1 -0 -1 -2 -2 -1 1 1 1 -1 -3 -5 -3 2 6 7 7 5 2 0 -0 -0 0 1 1 1 -0 -1 -1 -1 0 1 1 1 1 0 -0 0 0 -1 -1 -1 -1 -1 -0 0 0 -0 -0 -1 -1 -1 -1 -1 -1 -1
0 0 0 0 0 0 0 -0 -0 -0 -1 -0 -0 0 2 7 10 9 2 -0 0 2 3 2 1 1 0 -0 -1 -0 1 1 1 2 5 5 3 2 2 1 2 3 1 1 2 2 1 0 -0 -1 -1 -1 -0 1 1 0 -3 -5 -3 -2 1 4 7 7 6 3 0 -1 -1 -1 0 1 0 -1 -1 -1 -0 1 1 1 1 0 1 1 1 1 0 -0 -1 -1 -1 -0 -0 -0 -0 -1 -1 -1 -2 -1 -1 -1 -1
0 1 0 1 1 1 1 0 0 -0 -1 -0 -0 -0 -1 3 12 16 7 0 -1 1 2 1 1 -0 0 1 2 2 2 3 4 5 3 3 3 3 0 0 4 6 3 3 2 2 1 0 0 0 0 1 1 1 2 -1 -4 -5 -0 1 2 4 6 6 4 2 -1 -1 -1 -1 -0 0 0 -0 -0 -0 0 1 1 1 0 0 0 1 1 2 1 0 -0 -1 -1 -0 -0 -1 -1 -1 -1 -1 -2 -2 -1 -1 -1
1 1 1 1 1 1 1 1 1 0 -0 -0 -0 -0 -1 0 8 14 13 2 -1 -1 2 2 1 0 0 2 3 3 2 1 4 6 3 2 2 1 -1 -0 4 7 5 5 4 3 1 0 -0 0 1 1 1 1 2 -1 -3 -4 0 2 2 3 4 4 3 1 -1 -1 -1 -0 1 2 3 3 3 3 2 1 1 1 0 0 -0 1 1 2 1 1 0 -0 -1 -0 -1 -1 -1 -1 -1 -2 -2 -2 -2 -1 -1
1 1 1 1 1 2 2 1 1 1 1 0 0 0 0 -1 2 6 12 7 3 1 2 1 3 4 4 2 2 2 1 1 1 1 1 3 2 0 -1 -1 2 4 3 5 4 2 1 -0 -1 -0 1 1 1 1 2 -0 -2 -3 -1 1 2 2 2 3 2 1 -1 -1 -1 0 1 3 4 5 3 3 3 2 1 1 0 0 0 0 1 1 1 1 0 -0 -0 -0 -1 -1 -1 -1 -1 -2 -2 -2 -2 -1 -1
1 1 1 2 2 2 2 2 1 1 1 1 1 1 1 -0 -1 0 3 7 7 5 3 2 2 3 3 2 1 1 1 0 -0 -0 -1 2 4 3 -1 1 7 11 8 7 4 1 0 -1 -1 -1 1 0 -0 -0 1 -0 -2 -3 -2 0 1 1 1 2 2 1 -0 -1 -1 0 2 3 3 3 1 3 4 4 2 1 1 0 0 0 1 1 1 0 -0 -0 -0 -0 -1 -1 -1 -1 -1 -1 -1 -1 -1 -1 -1
1 1 1 2 2 2 2 2 1 1 1 1 1 1 1 1 -0 -1 -2 1 3 5 5 5 4 3 2 0 -0 -0 0 1 1 1 -0 1 4 5 0 3 12 19 16 9 4 0 -1 -1 -1 -0 1 -0 -1 -1 -1 -1 -2 -3 -2 1 2 1 0 0 1 1 0 -1 -1 -0 1 2 2 1 0 2 4 4 4 3 1 0 1 0 1 1 1 0 -0 -0 -0 -0 -1 -1 -1 -1 -1 -1 -1 -1 -1 -1 -0
1 1 1 1 1 2 2 2 2 2 2 2 1 2 2 1 0 0 -1 -2 -1 1 4 5 5 4 2 -0 -1 -1 -0 1 2 2 2 1 2 3 1 2 8 14 13 6 2 1 0 -0 0 1 1 -0 -1 -1 -2 -2 -3 -3 -1 1 2 1 0 -1 -0 -0 -0 -1 -1 -1 -0 1 2 2 1 2 2 3 5 3 1 -1 0 -0 0 0 0 0 -0 -0 -1 -0 -0 -0 -1 -1 -0 -0 0 -0 -0 0 0
-1 1 1 0 1 1 1 2 2 2 2 2 2 2 2 2 1 1 1 -0 -1 -0 2 3 3 3 2 1 -0 -1 -1 1 2 2 2 1 1 0 0 -0 3 7 11 6 3 2 1 0 1 1 1 1 -0 -1 -2 -2 -3 -3 -1 2 2 2 0 -1 -1 -1 -1 -1 -1 -1 -1 0 1 2 3 2 1 1 4 4 2 1 1 2 1 0 0 -0 -0 -1 -0 0 0 1 0 0 0 0 1 1 1 1 1
-3 -1 0 1 1 1 -1 1 2 2 3 2 1 1 3 3 3 3 2 1 1 -0 0 1 2 2 2 2 2 1 -0 0 1 1 2 1 1 1 -0 -1 0 2 5 4 4 3 1 0 0 1 1 1 0 -0 -0 -1 -3 -3 -3 1 3 2 1 -1 -1 -2 -1 -1 -1 -1 -2 -1 -0 1 3 2 2 1 0 2 2 2 2 2 2 0 -0 -0 -1 -0 0 1 1 1 1 1 1 1 1 1 1 1 1
-3 -3 -3 -1 0 0 -1 -0 1 2 2 1 0 1 2 4 5 5 4 3 2 1 1 1 1 1 1 3 3 2 2 0 -1 -0 1 1 1 1 1 1 -0 -1 0 1 1 1 1 0 -0 -0 0 1 1 1 0 -1 -2 -3 -4 -0 2 3 1 -0 -1 -2 -2 -1 -1 -2 -2 -2 -1 -0 1 2 2 2 0 1 1 2 2 1 0 -0 -0 -0 -0 0 1 1 2 2 2 2 2 1 1 1 1 1 1
-1 -2 -4 -3 -2 -2 -0 0 0 0 0 -1 -1 1 3 5 6 6 6 4 3 2 1 1 1 1 1 2 2 3 2 1 0 -0 0 1 2 2 2 2 1 1 1 0 -0 -0 0 -1 -1 -1 -0 0 0 1 0 -1 -2 -3 -4 -2 0 2 2 1 -1 -1 -1 -1 -1 -2 -2 -2 -2 -1 0 1 2 2 2 1 1 1 1 1 1 2 1 -0 -0 1 1 2 2 3 3 3 2 1 1 0 0 0 0
1 1 -1 -2 -3 -4 -2 -0 0 -1 -2 -3 -2 1 4 5 6 6 6 6 5 4 2 2 1 1 1 1 2 2 2 1 1 0 -0 1 2 2 2 2 2 2 2 1 0 0 0 -1 -1 -1 -0 -0 -0 0 0 -1 -1 -2 -4 -4 -1 2 3 2 0 -1 -1 -1 -1 -1 -2 -2 -2 -2 -1 0 1 2 2 2 1 1 1 1 3 5 5 6 6 4 2 3 3 3 3 3 2 1 -1 -1 -2 -1 -1
1 1 1 1 -1 -2 -2 -2 -1 -2 -4 -4 -2 1 3 4 5 6 5 6 7 7 5 3 2 1 1 0 1 1 2 3 2 -0 -1 1 2 2 2 2 2 2 2 1 1 0 -1 -1 -1 -1 -0 -0 0 1 1 0 -1 -1 -2 -4 -2 1 4 3 1 -0 -1 -1 -1 -1 -1 -1 -2 -2 -1 -0 1 1 2 2 2 2 2 1 1 2 2 3 5 7 10 7 4 2 2 2 1 0 -2 -3 -4 -3 -3
-0 -0 1 1 1 1 0 -1 -2 -3 -5 -3 -1 1 2 3 4 4 5 6 6 7 7 5 3 2 1 0 -0 0 2 4 3 1 1 1 2 3 3 2 2 2 1 1 1 0 -1 -1 -1 -1 -1 -0 -0 -0 0 -0 -0 -1 -1 -2 -2 -1 3 4 2 0 -1 -1 -1 -0 -0 -1 -1 -1 -2 -1 -0 0 1 2 2 2 2 2 1 -0 -2 -2 -1 3 9 8 4 0 1 1 -0 -1 -3 -4 -4 -4 -3
-1 -1 -1 -0 1 1 2 0 -2 -4 -5 -1 1 2 1 1 1 2 3 5 5 6 6 7 5 4 2 1 0 1 2 3 3 2 2 1 2 2 2 2 1 1 1 1 1 0 -0 -1 -1 -1 -0 -0 -1 -1 -1 -1 -0 -0 -1 -1 -2 -1 2 4 3 1 -1 -1 -1 -0 0 -0 -1 -1 -1 -2 -1 -1 0 1 2 2 3 2 2 0 -2 -1 1 2 2 3 3 1 1 -1 -2 -2 -3 -3 -3 -2 -2
-1 -1 -1 -1 -1 -0 -0 -0 -2 -3 -3 1 3 3 2 0 -0 1 1 3 4 4 5 5 5 4 3 2 2 3 3 3 3 2 2 2 2 3 2 2 1 1 2 1 0 -0 -0 -0 -0 -0 -0 -0 -1 -2 -2 -1 -1 -0 -1 -1 -1 -1 -1 2 3 2 1 -1 -1 -1 -0 0 -0 -1 -1 -2 -2 -2 -1 -0 1 2 3 3 2 0 -2 0 2 4 3 3 2 1 1 -1 -2 -2 -2 -2 -1 -1 -0
-3 -2 -1 -1 -2 -2 -3 -3 -2 -2 -1 2 3 3 3 1 1 1 1 1 2 2 3 3 3 4 4 5 5 5 4 4 3 2 2 2 3 4 4 3 2 2 2 1 1 0 1 0 0 0 0 -0 -1 -1 -1 -1 -1 -0 0 -0 -1 -2 -3 -0 1 2 1 -0 -1 -1 -1 -0 -0 -0 -1 -2 -2 -2 -2 -1 -0 1 2 3 2 1 -1 -0 3 5 3 2 -1 -3 -3 -2 -2 -2 -2 -2 -1 -0 -0
-5 -4 -1 -1 -2 -3 -4 -4 -4 -3 -0 2 3 3 5 3 2 2 1 -0 -1 -0 0 -0 1 3 5 6 6 6 6 5 4 3 2 2 3 3 3 3 3 2 2 2 1 0 1 1 1 1 1 1 1 0 -0 -1 -1 -0 0 -0 -1 -2 -3 -1 0 1 1 -0 -1 -1 -1 -1 -0 0 -0 -1 -2 -2 -2 -2 -1 0 2 3 2 1 -1 -0 2 5 5 0 -3 -4 -4 -2 -1 -1 -2 -2 -1 -0 -0
-5 -5 -4 -2 -2 -3 -3 -4 -5 -4 -0 1 1 2 4 4 4 3 2 -1 -2 -3 -1 -1 1 2 4 6 6 5 6 7 5 3 2 2 2 2 0 2 3 3 2 2 1 -0 -0 -0 1 1 2 2 2 1 0 -1 -1 -1 -1 -0 -1 -1 -2 -2 -1 0 1 -0 -1 -1 0 0 1 1 0 -0 -1 -2 -3 -3 -2 -1 1 2 2 2 0 -0 1 4 5 0 -2 -3 -2 -1 -1 -1 -1 -1 -1 -0 -0
-3 -4 -5 -4 -3 -3 -3 -5 -5 -3 -2 -1 -0 2 3 4 4 3 2 0 -2 -2 -1 1 1 1 1 4 4 4 6 6 6 4 3 3 3 2 -1 2 3 2 1 4 4 2 -0 0 1 2 2 2 2 2 1 1 0 -1 -1 -0 -0 -0 -1 -2 -1 -1 -0 -1 -1 -0 1 2 2 1 0 -0 -1 -2 -3 -3 -2 -2 -0 1 2 2 1 0 1 1 2 -1 -2 -2 -2 -1 -1 -1 -1 -1 -1 -0 -1
-2 -3 -4 -5 -5 -4 -3 -4 -4 -3 -4 -2 -1 1 2 3 3 2 1 -1 -1 -0 1 2 2 0 -1 0 2 3 4 5 6 6 5 4 4 3 2 2 1 0 0 4 6 6 1 2 2 2 2 3 3 2 2 2 2 1 -0 -1 -0 0 0 -1 -1 -1 -1 -2 -2 -1 1 2 2 1 -0 -0 -1 -1 -2 -2 -3 -2 -1 0 2 2 2 1 1 1 1 -1 -2 -3 -2 -1 -1 -1 -1 -1 -1 -0 -1
-1 -2 -3 -4 -5 -5 -4 -3 -3 -3 -4 -2 -1 -0 0 1 2 2 -1 -1 -0 1 1 2 2 0 -2 -2 0 2 2 3 5 7 6 5 4 4 3 3 2 1 1 1 1 2 2 2 2 2 3 3 3 3 4 4 3 3 1 -1 -1 -1 0 0 -0 -1 -1 -1 -1 -1 -0 1 1 1 0 -1 -1 -1 -2 -2 -2 -2 -2 -0 1 2 2 2 1 1 1 0 -1 -2 -1 -1 -1 -1 -1 -1 -1 -1 -1
-1 -1 -2 -3 -4 -5 -6 -4 -3 -2 -2 -2 -2 -1 -1 0 1 1 -2 -1 -1 -1 -1 2 2 0 -2 -2 -1 1 1 2 4 7 6 5 4 4 4 3 2 1 2 1 -0 -0 1 1 1 1 2 2 2 3 4 4 4 4 3 1 -1 -2 -1 0 1 -0 -1 -1 -1 -1 -1 0 1 1 1 -0 -1 -2 -2 -2 -2 -2 -2 -1 1 2 3 2 2 2 2 1 0 -0 1 1 0 -0 0 -0 -0 -0 -0
-2 -2 -2 -2 -2 -4 -5 -5 -3 -2 -1 -1 -1 -2 -2 -0 -0 -1 -1 -0 -1 -2 -3 -2 0 1 1 -0 -1 -0 1 3 4 5 6 5 4 4 3 2 2 1 1 0 0 1 1 0 0 -0 -1 -1 0 1 2 3 4 4 4 3 1 -0 -1 -0 0 1 0 -0 -1 -1 -1 -1 -0 -0 1 0 -1 -2 -2 -2 -1 -1 -1 -1 0 2 3 3 2 2 2 1 0 0 2 2 3 5 5 3 1 0 0
-3 -3 -2 -2 -1 -2 -3 -4 -4 -3 -1 -0 -1 -2 -2 -1 -1 -1 -1 -1 -1 -2 -4 -4 -2 1 3 2 1 0 1 3 3 3 3 4 3 1 -0 1 1 2 0 -0 0 1 -0 0 -0 -1 -2 -1 -1 -0 -0 1 2 4 4 4 3 2 1 0 1 1 1 0 -0 -1 -1 -1 -1 -1 -1 -0 -1 -1 -1 -1 -1 -1 -1 -1 -0 1 2 2 2 2 2 1 1 1 2 1 3 5 6 4 2 -0 1
-4 -4 -4 -3 -2 -1 -1 -3 -3 -3 -2 -1 -1 -2 -2 -1 -1 -2 -3 -1 -1 -2 -2 -3 -4 -2 2 2 2 2 2 3 2 -0 -2 -1 -2 -2 -2 1 2 2 2 1 0 -0 -0 -0 -1 -1 -0 -1 -1 -1 -1 -1 1 2 3 4 4 4 2 2 2 2 1 1 0 0 0 0 -1 -2 -3 -2 -1 -1 -1 -1 -1 -1 -1 -1 -1 -0 1 2 2 2 2 1 1 2 3 2 1 1 -1 3 1 -2 -1
-4 -4 -4 -4 -3 -2 -1 -2 -2 -3 -3 -2 -1 -1 -1 -1 -2 -3 -3 -2 -3 -3 -1 -1 -3 -4 -2 0 2 3 4 1 -2 -3 -5 -6 -4 -1 3 4 3 4 5 4 2 0 1 1 -1 -1 -0 -1 -1 -1 -1 -1 -1 -1 -0 3 4 4 4 3 3 3 2 1 1 1 1 1 -0 -2 -3 -3 -2 -2 -2 -1 -1 -1 -1 -1 -1 -1 -0 1 1 1 1 1 1 2 3 2 1 -1 -3 2 2 -0 -1
-4 -4 -4 -4 -3 -3 -2 -2 -2 -2 -2 -2 -1 -0 0 -1 -2 -3 -1 -2 -3 -4 -2 -1 -2 -3 -4 -3 0 3 3 -1 -2 -3 -4 -4 -2 2 7 6 4 2 5 5 4 2 1 1 -0 -1 -2 -1 -1 -1 -1 -1 -1 -2 -2 0 2 4 6 4 4 4 4 2 1 1 2 2 1 -1 -2 -3 -3 -3 -2 -2 -2 -1 -0 -1 -1 -1 -1 -0 0 0 0 -0 0 1 3 3 2 0 -1 -0 1 2 2
-3 -4 -4 -4 -3 -3 -3 -2 -2 -2 -1 -1 -1 -0 0 -1 -1 -1 1 -1 -3 -4 -4 -4 -2 -1 -3 -5 -2 1 2 0 -0 -1 -3 0 3 3 -1 0 -0 -1 -1 1 1 1 -0 -0 -1 -2 -2 -2 -1 -1 -1 -1 -1 -2 -2 -2 0 3 5 5 5 5 4 2 2 2 2 2 1 0 -1 -2 -2 -3 -3 -2 -2 -1 -2 -2 -2 -2 -2 -1 -1 -0 0 -0 0 1 2 3 3 2 2 1 1 2 5
-2 -3 -4 -4 -3 -3 -3 -3 -3 -2 -1 -1 -0 0 1 0 0 0 0 -1 -2 -3 -4 -5 -3 -1 -1 -4 -4 -2 2 -0 -0 -1 -3 1 4 2 -8 -7 -5 -4 -5 -0 2 3 3 -1 -3 -3 -2 -2 -1 -1 -1 0 -0 -1 -2 -1 -1 0 2 5 6 6 5 3 2 2 2 2 2 1 -0 -1 -1 -2 -2 -2 -2 -2 -2 -2 -2 -3 -2 -2 -1 0 1 1 1 1 2 2 2 2 1 2 2 2 3
-1 -2 -3 -3 -3 -3 -3 -3 -2 -2 -2 -2 -1 1 2 2 1 1 0 -1 -1 -1 -3 -5 -5 -3 -1 -1 -2 -3 -1 -1 -2 -1 1 1 1 -0 -3 -3 -5 -5 2 9 7 3 7 -2 -4 -3 -2 -1 0 1 1 1 0 -1 -1 -1 -1 -1 1 3 4 4 4 3 2 2 3 2 2 1 1 0 -0 -1 -1 -1 -2 -2 -2 -1 -2 -2 -2 -1 -0 1 2 2 2 2 3 2 2 1 0 1 2 3 1
-1 -1 -2 -2 -3 -3 -3 -2 -2 -2 -2 -3 -2 -1 1 2 2 1 1 0 0 -0 -2 -3 -4 -5 -5 -2 -1 -2 -3 1 0 -1 3 2 -2 -3 1 5 1 0 11 7 -1 -5 3 2 -0 -3 -4 -1 0 0 2 2 0 -1 -0 -1 -2 -1 0 1 2 3 3 2 2 3 3 2 2 2 2 1 0 -0 -0 -1 -1 -2 -2 -1 -2 -2 -1 -0 0 1 2 2 2 2 2 2 1 1 1 3 3 2 0
0 -0 -0 -1 -2 -2 -2 -2 -2 -2 -2 -2 -2 -3 -2 -1 1 2 2 0 -0 -0 -1 -1 -2 -4 -8 -5 -3 -0 0 3 3 1 1 -1 -3 -3 -1 6 6 4 -1 -6 -9 -9 -7 9 9 2 -3 1 -1 -4 -3 -1 -1 -1 0 -1 -1 -1 -1 -0 1 1 0 0 2 3 3 2 2 2 2 1 1 0 0 0 -0 -1 -1 -2 -3 -3 -1 -1 0 1 1 1 1 2 2 1 1 0 0 2 1 1 0
0 1 1 0 -0 -1 -2 -2 -1 -1 -1 -1 -2 -3 -3 -2 -1 0 1 0 -0 -0 -1 -1 -1 -3 -5 -5 -3 -0 1 2 3 3 1 -1 -1 -1 0 0 0 -2 -10 -3 1 1 -3 11 13 8 4 5 1 -4 -9 -5 -4 -3 -3 -1 -0 -1 -2 -0 0 -0 -1 -0 1 2 2 2 3 3 3 1 1 1 1 1 1 0 -1 -2 -3 -3 -2 -2 -0 1 1 1 1 1 2 2 1 -0 -1 -1 -1 -1 -0
0 1 1 1 0 -0 -1 -1 -1 -1 -1 -1 -1 -2 -2 -2 -2 -1 -1 0 1 -0 -2 -2 -1 -1 -1 -3 -4 -4 -1 1 3 4 3 2 -0 -1 2 -2 -5 -4 1 6 10 11 11 15 11 2 -2 7 10 7 2 2 -2 -5 -7 -3 -2 -2 -2 -1 -0 -0 -1 -0 0 1 1 2 3 3 3 2 1 1 1 1 1 1 1 -1 -2 -3 -3 -3 -2 -0 1 0 1 1 2 2 2 0 -1 -1 -1 -1 1
-0 0 1 1 1 1 -0 -0 -1 -1 -1 -1 -1 -1 -1 -2 -2 -2 -1 0 1 1 -0 -1 -2 -2 -1 -2 -4 -5 -4 -1 2 4 5 4 3 2 1 -4 -2 3 9 2 1 -0 -5 -2 -6 -10 -7 5 7 7 8 10 9 7 2 -2 -3 -4 -3 -3 -3 -2 -0 0 0 0 0 1 1 2 2 2 1 1 2 1 1 2 2 0 -1 -2 -3 -3 -3 -1 0 0 0 1 2 3 3 2 0 -1 -2 -1 2
-0 -0 0 1 1 1 0 -0 -0 -0 -1 -0 -0 -0 -1 -1 -1 -2 -2 -1 -0 0 0 -1 -2 -2 -1 -0 -2 -4 -6 -3 1 4 5 5 5 3 1 -1 1 3 0 -2 -3 -3 -6 1 -1 -4 1 -5 -5 -1 2 -0 5 11 13 7 2 -1 -2 -4 -4 -3 -1 -1 -0 -1 -1 -1 0 1 1 2 2 1 1 1 1 2 2 1 -0 -1 -3 -4 -3 -2 -1 -1 0 2 3 4 4 3 2 0 -1 -1 3
-1 -0 0 1 1 1 1 0 0 0 -0 -0 -0 -0 -0 -0 -1 -1 -2 -2 -2 -1 -1 -1 -1 -1 0 -0 -2 -3 -5 -2 1 3 3 3 3 3 6 4 1 -2 -5 0 2 2 3 2 3 3 3 -13 -7 4 5 -2 -1 5 9 12 10 6 2 -1 -3 -3 -2 -1 -1 -1 -2 -1 -0 0 0 1 2 1 1 1 1 1 1 1 1 -0 -2 -2 -3 -3 -2 -2 -0 2 3 4 4 3 3 2 0 1 5
-1 -1 -0 0 1 1 0 1 1 1 0 0 0 -0 -0 -0 -1 -1 -1 -2 -2 -1 -1 -1 -0 0 -1 -2 -2 -2 -3 -1 1 2 1 -2 1 6 9 4 1 -1 0 2 1 1 3 1 4 5 -3 -10 -3 4 -3 -2 -0 0 -1 6 10 11 6 1 -1 -2 -2 -1 -0 0 -0 -1 -1 -2 -1 0 1 1 1 1 1 0 0 0 1 1 -0 -1 -2 -2 -3 -3 -1 1 3 3 3 3 3 2 2 2 5
-0 -1 -1 -0 0 1 0 0 0 1 1 1 0 -0 -0 -0 -1 -1 -1 -2 -2 -1 -1 -0 -0 -0 -1 -1 -1 -1 -1 -1 -1 -0 1 -1 1 5 7 4 2 2 2 0 0 1 2 2 4 4 -4 -0 -0 -5 -16 -3 1 -1 -5 0 4 6 6 4 2 -1 -2 -1 -0 -0 -0 -1 -2 -3 -2 -2 -0 1 2 1 0 0 0 0 1 1 0 -0 -1 -2 -3 -4 -3 -1 2 2 3 2 2 2 2 2 3
Height
3154 3154 3153 3153 3153 3153 3152 3152 3151 3151 3150 3150 3150 3150 3150 3150 3150 3150 3151 3151 3151 3151 3150 3150 3149 3149 3149 3149 3149 3149 3150 3150 3150 3150 3150 3150 3150 3150 3150 3150 3150 3150 3150 3150 3151 3151 3152 3152 3152 3152 3153 3153 3153 3153 3154 3154 3154 3154 3154 3154 3155 3155 3155 3154 3155 3156 3157 3158 3158 3159 3159 3160 3160 3160 3161 3162 3162 3163 3163 3163 3164 3164 3165 3165 3166 3166 3167 3167 3167 3168 3168 3169 3170 3170 3170 3171 3171 3172 3173 3173 3173 3174 3174
3152 3152 3151 3151 3151 3151 3151 3150 3150 3150 3149 3149 3149 3149 3149 3149 3149 3149 3149 3149 3149 3149 3149 3148 3148 3148 3148 3148 3148 3148 3148 3148 3148 3148 3148 3149 3149 3149 3149 3149 3149 3149 3149 3149 3150 3150 3150 3151 3151 3151 3151 3151 3152 3152 3153 3153 3153 3153 3153 3153 3154 3154 3154 3153 3154 3155 3156 3157 3157 3158 3158 3159 3159 3160 3160 3161 3161 3162 3162 3163 3163 3163 3164 3164 3165 3165 3165 3166 3166 3167 3168 3168 3169 3169 3170 3170 3171 3171 3172 3172 3173 3173 3174
3150 3150 3150 3150 3150 3149 3149 3149 3149 3148 3148 3148 3148 3148 3148 3148 3147 3146 3147 3147 3147 3146 3146 3146 3146 3146 3146 3146 3146 3146 3146 3146 3147 3147 3147 3147 3147 3147 3148 3148 3148 3148 3148 3148 3149 3149 3149 3150 3150 3150 3150 3150 3150 3151 3152 3152 3152 3152 3152 3153 3153 3153 3152 3153 3154 3155 3155 3156 3156 3156 3157 3157 3158 3159 3159 3160 3160 3161 3161 3162 3162 3162 3163 3163 3164 3164 3165 3165 3165 3166 3166 3167 3168 3168 3169 3170 3170 3170 3171 3172 3172 3173 3173
3149 3149 3148 3148 3148 3148 3147 3147 3147 3147 3146 3146 3146 3146 3146 3146 3145 3145 3145 3145 3145 3145 3145 3144 3145 3145 3145 3145 3145 3145 3145 3145 3145 3145 3145 3146 3146 3146 3146 3146 3147 3147 3147 3147 3147 3148 3148 3149 3149 3149 3149 3149 3149 3150 3151 3151 3151 3151 3151 3151 3152 3152 3152 3152 3153 3154 3154 3155 3155 3155 3156 3156 3157 3157 3158 3159 3159 3160 3160 3160 3161 3161 3162 3162 3163 3163 3164 3164 3165 3165 3165 3166 3167 3167 3168 3169 3169 3170 3170 3171 3171 3172 3173
3148 3147 3147 3147 3147 3146 3145 3145 3145 3145 3145 3145 3144 3144 3144 3144 3144 3143 3143 3143 3143 3143 3142 3142 3142 3143 3143 3143 3143 3143 3143 3143 3143 3144 3144 3144 3144 3145 3145 3145 3145 3145 3146 3146 3146 3146 3147 3147 3147 3148 3148 3148 3148 3148 3150 3150 3150 3150 3150 3151 3151 3151 3150 3151 3152 3153 3154 3154 3154 3154 3155 3155 3156 3156 3157 3158 3158 3159 3159 3160 3160 3160 3161 3161 3161 3162 3162 3163 3163 3164 3165 3165 3166 3166 3167 3168 3168 3169 3170 3170 3171 3171 3172
3146 3145 3145 3145 3144 3144 3144 3144 3144 3143 3143 3143 3143 3142 3142 3142 3142 3141 3141 3141 3141 3141 3141 3140 3141 3141 3141 3141 3141 3141 3141 3141 3142 3142 3142 3142 3143 3143 3143 3143 3144 3144 3144 3144 3144 3145 3145 3145 3146 3146 3146 3146 3146 3147 3148 3149 3149 3149 3149 3150 3149 3149 3149 3150 3151 3152 3152 3152 3152 3153 3154 3154 3155 3155 3156 3156 3157 3157 3158 3158 3159 3159 3160 3160 3160 3161 3161 3162 3162 3163 3164 3164 3165 3165 3166 3167 3167 3168 3169 3169 3170 3171 3171
3144 3144 3143 3143 3142 3142 3142 3142 3142 3141 3141 3141 3141 3141 3141 3140 3140 3140 3140 3140 3140 3139 3139 3139 3139 3139 3139 3139 3139 3140 3140 3140 3140 3140 3140 3140 3141 3141 3141 3142 3142 3142 3143 3143 3143 3143 3143 3144 3144 3145 3145 3145 3145 3146 3146 3147 3148 3148 3148 3148 3147 3148 3148 3149 3150 3151 3151 3151 3151 3152 3152 3153 3154 3154 3155 3155 3156 3156 3156 3157 3158 3158 3159 3159 3160 3160 3160 3161 3161 3162 3162 3163 3164 3165 3165 3166 3166 3167 3168 3169 3169 3170 3171
3142 3142 3141 3141 3140 3140 3140 3140 3140 3140 3139 3139 3139 3139 3139 3139 3139 3138 3138 3138 3137 3137 3137 3137 3137 3137 3137 3137 3137 3138 3138 3138 3138 3138 3139 3139 3139 3139 3140 3140 3140 3140 3141 3141 3142 3142 3141 3142 3142 3143 3143 3144 3144 3144 3145 3145 3146 3146 3146 3146 3146 3147 3147 3148 3149 3149 3150 3150 3150 3150 3151 3152 3152 3153 3154 3154 3155 3155 3155 3156 3156 3157 3158 3158 3159 3159 3160 3160 3160 3161 3161 3162 3163 3163 3164 3165 3165 3166 3167 3168 3168 3169 3170
3140 3140 3139 3139 3139 3138 3138 3138 3137 3137 3137 3137 3137 3137 3137 3137 3137 3136 3136 3137 3136 3135 3135 3135 3135 3135 3135 3135 3135 3136 3136 3136 3136 3136 3137 3137 3137 3137 3138 3138 3138 3139 3139 3140 3140 3140 3140 3140 3141 3142 3142 3142 3142 3143 3143 3143 3144 3145 3145 3145 3145 3145 3145 3146 3147 3148 3148 3149 3149 3150 3150 3151 3151 3152 3153 3153 3154 3154 3155 3155 3155 3156 3157 3157 3158 3158 3159 3159 3160 3160 3160 3161 3162 3163 3163 3164 3165 3165 3166 3167 3168 3168 3169
3138 3138 3137 3137 3137 3136 3136 3136 3136 3136 3137 3137 3135 3134 3135 3135 3135 3135 3135 3135 3135 3134 3133 3133 3133 3133 3133 3133 3134 3135 3136 3136 3135 3135 3135 3135 3135 3135 3135 3136 3136 3137 3137 3138 3138 3139 3139 3139 3140 3140 3140 3140 3140 3140 3141 3141 3142 3143 3143 3143 3143 3144 3144 3145 3145 3146 3147 3148 3148 3148 3149 3150 3150 3151 3151 3152 3153 3153 3154 3154 3155 3155 3155 3156 3157 3157 3158 3158 3159 3159 3160 3160 3161 3161 3162 3163 3164 3164 3165 3166 3167 3167 3168
3136 3136 3135 3135 3135 3135 3134 3134 3134 3134 3134 3134 3134 3133 3132 3132 3133 3133 3132 3132 3132 3132 3131 3131 3131 3131 3131 3131 3132 3133 3133 3133 3133 3133 3133 3133 3133 3133 3133 3134 3135 3135 3135 3136 3136 3137 3137 3138 3138 3139 3139 3139 3139 3139 3139 3139 3140 3140 3141 3141 3142 3142 3142 3143 3144 3145 3146 3146 3147 3147 3148 3149 3149 3150 3150 3151 3151 3152 3153 3153 3154 3154 3155 3155 3155 3156 3157 3157 3158 3158 3159 3159 3160 3160 3161 3162 3163 3163 3164 3165 3165 3166 3167
3134 3134 3133 3133 3133 3132 3132 3132 3131 3131 3131 3132 3132 3132 3130 3130 3130 3130 3130 3130 3130 3130 3130 3130 3130 3130 3130 3130 3130 3130 3130 3130 3130 3130 3130 3131 3131 3131 3131 3132 3132 3133 3134 3134 3134 3135 3135 3136 3137 3137 3137 3137 3137 3137 3137 3138 3138 3139 3140 3140 3140 3140 3141 3142 3143 3144 3145 3145 3146 3146 3147 3148 3148 3149 3149 3150 3150 3151 3152 3152 3153 3153 3154 3154 3155 3155 3156 3156 3157 3157 3158 3158 3159 3160 3160 3161 3162 3162 3163 3164 3165 3165 3166
3131 3131 3131 3131 3130 3130 3130 3130 3129 3129 3130 3130 3130 3129 3129 3128 3128 3128 3128 3128 3128 3128 3128 3128 3128 3128 3128 3128 3128 3128 3128 3128 3128 3128 3128 3129 3129 3130 3129 3130 3130 3131 3131 3132 3132 3133 3133 3134 3135 3135 3135 3135 3135 3135 3135 3136 3136 3137 3138 3138 3138 3139 3140 3140 3141 3143 3143 3144 3144 3144 3145 3146 3147 3147 3148 3149 3149 3150 3150 3151 3152 3152 3152 3153 3154 3154 3155 3155 3156 3156 3156 3157 3158 3158 3159 3160 3160 3161 3162 3163 3164 3165 3165
3129 3129 3129 3128 3128 3128 3128 3127 3127 3127 3127 3128 3128 3127 3127 3127 3126 3126 3126 3126 3126 3125 3125 3125 3125 3125 3125 3126 3125 3125 3125 3126 3126 3126 3127 3127 3127 3127 3128 3128 3128 3129 3129 3130 3130 3130 3131 3132 3132 3133 3133 3133 3133 3133 3134 3134 3134 3135 3136 3135 3136 3137 3138 3139 3140 3141 3142 3142 3142 3142 3143 3144 3145 3145 3146 3147 3148 3148 3149 3150 3150 3151 3151 3152 3153 3153 3154 3154 3155 3155 3155 3156 3156 3157 3158 3159 3160 3160 3161 3162 3163 3163 3164
3127 3127 3126 3126 3126 3125 3125 3125 3125 3125 3125 3125 3125 3125 3125 3125 3125 3124 3124 3123 3123 3123 3123 3123 3123 3123 3123 3124 3124 3124 3124 3124 3124 3125 3125 3125 3125 3125 3125 3126 3126 3126 3127 3128 3128 3129 3129 3130 3130 3130 3131 3131 3131 3131 3132 3132 3132 3133 3133 3133 3133 3135 3136 3137 3138 3139 3140 3140 3141 3141 3141 3142 3143 3143 3144 3145 3146 3147 3148 3148 3149 3150 3150 3151 3152 3152 3153 3153 3154 3154 3155 3155 3155 3156 3157 3158 3158 3159 3160 3161 3161 3162 3163
3125 3125 3124 3124 3123 3123 3123 3123 3123 3122 3122 3122 3122 3123 3123 3122 3123 3123 3122 3121 3121 3121 3121 3121 3121 3121 3121 3121 3121 3121 3121 3122 3122 3122 3123 3123 3123 3123 3123 3123 3124 3124 3125 3125 3126 3126 3127 3127 3128 3128 3129 3129 3129 3130 3130 3130 3130 3130 3130 3131 3132 3133 3134 3135 3136 3137 3138 3139 3139 3140 3140 3140 3141 3142 3143 3143 3144 3145 3146 3147 3148 3149 3150 3150 3151 3151 3151 3152 3152 3153 3153 3154 3154 3155 3156 3156 3157 3158 3159 3160 3160 3161 3162
3124 3123 3122 3121 3121 3120 3120 3120 3120 3120 3120 3120 3120 3120 3120 3120 3120 3120 3120 3119 3119 3119 3119 3119 3119 3119 3119 3119 3119 3120 3120 3120 3120 3120 3120 3120 3121 3121 3121 3121 3121 3122 3122 3123 3124 3124 3125 3125 3125 3126 3126 3127 3127 3128 3128 3128 3128 3129 3128 3129 3130 3131 3133 3134 3134 3135 3136 3136 3137 3138 3138 3139 3139 3140 3141 3142 3142 3143 3144 3145 3146 3147 3148 3149 3150 3150 3150 3150 3151 3152 3152 3153 3153 3154 3155 3155 3156 3157 3158 3159 3159 3160 3161
3121 3121 3120 3120 3119 3118 3118 3118 3118 3117 3117 3117 3117 3118 3118 3118 3118 3117 3117 3117 3116 3116 3116 3116 3116 3116 3117 3117 3117 3117 3117 3117 3118 3118 3118 3118 3119 3119 3119 3119 3119 3120 3120 3121 3121 3122 3123 3123 3123 3123 3124 3125 3125 3125 3126 3126 3126 3126 3126 3127 3128 3130 3131 3132 3132 3133 3134 3135 3135 3136 3137 3137 3138 3138 3139 3140 3141 3142 3142 3144 3145 3146 3147 3148 3149 3149 3149 3150 3150 3150 3151 3152 3152 3153 3153 3154 3155 3156 3157 3157 3158 3159 3160
3119 3118 3118 3117 3117 3116 3116 3115 3115 3115 3115 3115 3115 3115 3115 3115 3115 3115 3115 3114 3114 3114 3114 3115 3115 3115 3115 3115 3115 3115 3115 3115 3115 3115 3115 3115 3116 3116 3116 3116 3117 3118 3118 3119 3119 3120 3120 3120 3120 3121 3121 3122 3123 3123 3124 3124 3124 3124 3124 3125 3127 3128 3130 3130 3130 3131 3132 3133 3134 3135 3135 3136 3136 3137 3137 3138 3139 3140 3141 3142 3143 3144 3145 3146 3147 3148 3148 3148 3149 3150 3150 3151 3151 3152 3152 3153 3154 3155 3155 3156 3157 3158 3159
3115 3115 3115 3115 3115 3114 3114 3113 3113 3112 3112 3112 3112 3113 3114 3113 3113 3113 3112 3112 3112 3112 3112 3112 3113 3113 3112 3112 3112 3112 3113 3113 3113 3113 3113 3113 3113 3114 3114 3115 3115 3115 3116 3116 3117 3117 3118 3118 3118 3118 3119 3120 3120 3121 3121 3122 3122 3122 3122 3123 3125 3127 3128 3129 3129 3129 3130 3130 3131 3132 3133 3134 3135 3135 3136 3137 3137 3138 3139 3140 3141 3142 3143 3144 3145 3146 3146 3147 3148 3148 3149 3150 3150 3150 3151 3151 3152 3153 3154 3155 3156 3157 3158
3112 3112 3112 3112 3112 3111 3111 3111 3110 3110 3110 3110 3110 3111 3112 3111 3110 3109 3109 3109 3110 3110 3110 3110 3110 3110 3110 3110 3110 3110 3110 3110 3110 3110 3111 3110 3110 3111 3112 3113 3113 3114 3114 3114 3115 3115 3115 3115 3115 3116 3116 3117 3118 3119 3119 3120 3120 3120 3120 3121 3123 3125 3126 3127 3128 3128 3128 3128 3129 3130 3131 3132 3133 3134 3134 3135 3136 3137 3138 3139 3139 3140 3141 3142 3143 3144 3145 3145 3146 3147 3148 3148 3149 3149 3150 3150 3151 3152 3153 3154 3155 3155 3156
3110 3109 3109 3109 3109 3109 3108 3108 3108 3108 3108 3108 3108 3109 3109 3109 3107 3106 3105 3106 3107 3108 3108 3108 3108 3107 3108 3108 3108 3108 3108 3109 3108 3108 3108 3108 3108 3109 3109 3110 3111 3111 3111 3112 3112 3113 3113 3113 3113 3114 3114 3115 3115 3116 3117 3117 3117 3117 3118 3119 3121 3123 3124 3125 3126 3126 3126 3126 3127 3128 3129 3130 3131 3132 3132 3133 3134 3135 3136 3137 3137 3138 3139 3140 3141 3142 3143 3144 3145 3145 3146 3146 3147 3148 3148 3149 3150 3150 3151 3152 3153 3154 3155
3107 3106 3106 3106 3105 3105 3105 3105 3105 3105 3105 3105 3105 3106 3106 3107 3105 3103 3103 3103 3104 3105 3105 3105 3105 3105 3105 3105 3106 3105 3106 3106 3106 3106 3105 3106 3106 3106 3107 3108 3109 3109 3109 3110 3110 3110 3110 3110 3111 3111 3112 3113 3113 3114 3115 3115 3115 3115 3116 3118 3119 3120 3122 3123 3123 3124 3124 3124 3125 3126 3127 3128 3129 3130 3131 3132 3133 3134 3134 3135 3135 3136 3137 3138 3140 3140 3141 3142 3143 3144 3144 3145 3145 3146 3147 3148 3148 3149 3150 3150 3151 3152 3153
3104 3104 3103 3103 3102 3102 3102 3102 3102 3102 3102 3103 3103 3103 3104 3104 3103 3101 3100 3100 3101 3102 3103 3103 3103 3103 3103 3103 3103 3103 3103 3103 3104 3104 3104 3104 3104 3104 3105 3105 3106 3107 3107 3108 3108 3108 3108 3108 3108 3109 3110 3110 3111 3111 3112 3112 3112 3113 3115 3116 3117 3118 3119 3120 3121 3121 3122 3122 3123 3124 3125 3126 3128 3129 3129 3130 3131 3131 3132 3133 3134 3135 3135 3136 3138 3139 3140 3140 3141 3142 3142 3143 3144 3145 3145 3146 3147 3148 3149 3149 3150 3151 3152
3101 3101 3100 3100 3100 3099 3099 3099 3099 3099 3099 3100 3100 3100 3101 3101 3100 3099 3098 3098 3099 3100 3100 3100 3100 3100 3100 3100 3100 3100 3100 3100 3100 3101 3102 3102 3102 3102 3102 3103 3104 3104 3104 3105 3105 3105 3105 3105 3106 3106 3107 3107 3108 3109 3109 3110 3110 3111 3112 3113 3115 3116 3117 3118 3118 3119 3120 3120 3121 3122 3123 3125 3125 3126 3127 3129 3129 3130 3130 3131 3132 3132 3133 3135 3135 3137 3138 3138 3139 3140 3140 3141 3142 3143 3144 3145 3145 3146 3147 3148 3149 3150 3150
3098 3098 3097 3097 3097 3096 3096 3095 3095 3095 3096 3096 3096 3097 3097 3098 3097 3097 3096 3096 3096 3097 3097 3097 3097 3098 3098 3098 3098 3098 3098 3098 3098 3098 3099 3100 3100 3100 3100 3101 3102 3102 3102 3102 3102 3103 3103 3103 3104 3104 3104 3105 3105 3106 3106 3107 3108 3108 3109 3111 3112 3113 3114 3115 3116 3117 3117 3118 3119 3120 3121 3122 3124 3125 3125 3126 3127 3128 3128 3129 3130 3130 3131 3132 3134 3135 3136 3136 3137 3138 3139 3140 3141 3142 3143 3143 3144 3145 3146 3147 3148 3149 3150
3095 3095 3095 3095 3094 3093 3093 3093 3092 3092 3092 3092 3093 3093 3094 3094 3094 3094 3094 3093 3093 3093 3094 3095 3095 3095 3095 3095 3095 3095 3095 3095 3096 3096 3096 3097 3097 3098 3098 3099 3100 3100 3100 3100 3100 3100 3100 3100 3101 3101 3102 3102 3102 3103 3104 3104 3105 3105 3107 3108 3110 3111 3111 3112 3113 3115 3115 3116 3117 3118 3119 3120 3121 3122 3123 3125 3125 3125 3125 3127 3128 3128 3130 3130 3131 3133 3134 3135 3135 3136 3137 3138 3139 3140 3141 3142 3143 3144 3145 3145 3146 3147 3148
3093 3092 3092 3092 3091 3090 3090 3090 3089 3089 3089 3089 3089 3090 3090 3090 3091 3091 3091 3091 3090 3090 3091 3092 3092 3092 3092 3092 3092 3092 3093 3093 3094 3094 3094 3094 3095 3095 3096 3097 3097 3096 3096 3097 3097 3097 3098 3098 3099 3099 3100 3100 3100 3100 3100 3101 3102 3103 3104 3106 3107 3108 3109 3110 3110 3112 3113 3114 3115 3115 3117 3118 3119 3120 3120 3121 3122 3123 3123 3125 3125 3126 3127 3128 3130 3130 3132 3133 3134 3135 3135 3136 3138 3139 3140 3140 3141 3142 3143 3144 3145 3146 3147
3090 3090 3089 3089 3088 3088 3087 3087 3086 3086 3086 3086 3086 3086 3086 3087 3087 3088 3088 3088 3088 3088 3088 3088 3089 3089 3090 3090 3090 3090 3090 3090 3091 3091 3092 3092 3092 3092 3093 3094 3094 3094 3094 3094 3095 3095 3095 3095 3096 3097 3097 3097 3097 3098 3098 3099 3099 3100 3101 3103 3104 3105 3106 3107 3108 3109 3110 3111 3112 3113 3114 3115 3117 3118 3119 3120 3120 3121 3121 3122 3123 3125 3125 3126 3127 3129 3130 3131 3132 3133 3134 3135 3136 3137 3138 3139 3140 3141 3141 3142 3143 3144 3145
3086 3086 3086 3086 3085 3085 3084 3084 3084 3083 3083 3083 3083 3083 3083 3084 3084 3084 3085 3085 3085 3085 3085 3085 3085 3086 3086 3086 3087 3087 3087 3088 3088 3089 3089 3089 3090 3090 3090 3091 3091 3090 3090 3091 3092 3092 3092 3093 3093 3094 3095 3095 3095 3095 3096 3096 3096 3097 3098 3100 3101 3103 3103 3104 3105 3106 3107 3109 3110 3111 3112 3113 3114 3115 3116 3117 3118 3119 3119 3120 3121 3122 3124 3125 3126 3126 3128 3129 3130 3131 3132 3133 3134 3135 3136 3137 3138 3139 3140 3140 3141 3142 3143
3082 3083 3083 3082 3082 3082 3081 3081 3081 3080 3080 3080 3079 3080 3080 3080 3081 3081 3081 3081 3082 3082 3082 3082 3083 3083 3083 3084 3084 3084 3084 3085 3085 3086 3086 3087 3087 3087 3088 3088 3088 3088 3088 3089 3089 3090 3090 3090 3090 3091 3092 3092 3093 3093 3094 3094 3094 3094 3095 3096 3098 3100 3100 3101 3102 3103 3105 3106 3107 3108 3109 3110 3112 3113 3114 3115 3116 3117 3118 3118 3119 3120 3121 3123 3124 3124 3125 3126 3128 3129 3130 3131 3132 3133 3135 3135 3136 3137 3138 3139 3140 3140 3142
3078 3078 3079 3079 3079 3078 3078 3078 3078 3077 3076 3076 3076 3076 3077 3078 3078 3078 3078 3078 3078 3078 3079 3079 3080 3080 3080 3080 3081 3081 3081 3082 3082 3083 3084 3085 3085 3085 3085 3086 3086 3086 3086 3086 3086 3087 3087 3087 3088 3088 3089 3090 3090 3091 3091 3091 3092 3092 3092 3093 3095 3096 3098 3098 3099 3100 3101 3103 3104 3105 3107 3108 3109 3110 3112 3113 3114 3115 3116 3116 3117 3118 3119 3120 3121 3122 3123 3125 3126 3127 3128 3129 3130 3131 3132 3133 3134 3135 3136 3137 3138 3139 3140
3074 3074 3074 3074 3075 3074 3074 3074 3074 3073 3073 3073 3073 3074 3074 3075 3075 3075 3075 3075 3075 3075 3075 3075 3076 3076 3077 3077 3078 3078 3079 3079 3079 3080 3081 3082 3082 3083 3083 3083 3083 3083 3083 3084 3084 3084 3084 3085 3085 3086 3087 3087 3088 3088 3089 3089 3090 3090 3090 3090 3091 3093 3095 3096 3096 3097 3099 3100 3101 3103 3104 3105 3107 3108 3109 3110 3112 3113 3114 3115 3115 3116 3117 3118 3119 3120 3121 3122 3124 3125 3126 3127 3128 3129 3130 3131 3132 3133 3134 3135 3136 3137 3138
3070 3070 3070 3070 3070 3070 3070 3070 3070 3069 3070 3070 3070 3070 3071 3071 3071 3071 3071 3071 3072 3072 3072 3072 3072 3072 3073 3074 3074 3075 3076 3076 3076 3077 3078 3079 3080 3080 3080 3080 3081 3081 3081 3081 3081 3081 3082 3082 3083 3084 3084 3085 3085 3086 3087 3087 3087 3087 3088 3088 3089 3090 3092 3093 3094 3095 3096 3097 3099 3100 3101 3103 3104 3105 3107 3108 3109 3110 3111 3113 3113 3114 3115 3116 3117 3117 3119 3120 3122 3124 3124 3125 3126 3127 3128 3129 3130 3131 3132 3133 3134 3135 3137
3065 3065 3065 3065 3065 3065 3065 3065 3065 3065 3065 3066 3067 3067 3068 3068 3068 3068 3068 3068 3068 3069 3069 3069 3069 3069 3069 3070 3070 3072 3073 3073 3074 3074 3075 3076 3076 3077 3077 3078 3078 3078 3078 3078 3079 3079 3079 3080 3080 3081 3082 3083 3083 3084 3084 3085 3085 3085 3085 3086 3086 3087 3089 3090 3091 3092 3093 3094 3095 3097 3099 3100 3101 3103 3104 3105 3106 3108 3109 3110 3111 3112 3113 3114 3115 3116 3117 3118 3120 3122 3122 3123 3124 3125 3125 3126 3128 3129 3130 3132 3133 3134 3135
3062 3062 3061 3061 3061 3061 3061 3061 3060 3061 3061 3062 3063 3063 3064 3064 3064 3065 3065 3065 3065 3065 3065 3065 3065 3065 3065 3066 3067 3068 3069 3070 3071 3071 3072 3072 3073 3074 3074 3075 3075 3075 3075 3076 3076 3076 3076 3077 3078 3079 3079 3080 3080 3081 3081 3082 3083 3083 3084 3084 3085 3085 3086 3088 3089 3090 3090 3091 3092 3094 3095 3097 3099 3100 3101 3102 3104 3105 3106 3108 3109 3110 3111 3112 3113 3114 3115 3116 3118 3119 3120 3121 3122 3123 3124 3125 3126 3128 3129 3130 3131 3132 3134
3058 3058 3058 3058 3057 3057 3057 3056 3056 3056 3057 3058 3058 3059 3059 3060 3060 3061 3061 3061 3061 3061 3061 3062 3062 3062 3062 3063 3064 3065 3066 3067 3067 3068 3068 3069 3070 3070 3071 3071 3071 3072 3073 3073 3073 3074 3074 3075 3075 3076 3076 3077 3078 3078 3079 3080 3080 3081 3081 3082 3082 3083 3084 3085 3086 3087 3088 3088 3090 3091 3093 3094 3095 3097 3098 3100 3101 3102 3104 3105 3106 3108 3109 3110 3111 3112 3113 3114 3116 3118 3118 3119 3120 3121 3122 3123 3125 3126 3128 3129 3130 3131 3132
3055 3055 3054 3054 3054 3053 3053 3052 3052 3052 3053 3053 3054 3054 3055 3055 3056 3057 3057 3057 3057 3057 3057 3058 3058 3058 3059 3060 3061 3061 3062 3063 3064 3064 3065 3065 3066 3067 3067 3068 3068 3069 3070 3070 3070 3071 3071 3072 3072 3073 3073 3074 3075 3075 3076 3077 3078 3079 3079 3080 3080 3080 3081 3082 3083 3084 3085 3086 3087 3088 3090 3091 3093 3094 3095 3097 3098 3100 3101 3102 3104 3105 3106 3108 3109 3110 3111 3112 3114 3116 3116 3117 3118 3119 3120 3121 3123 3125 3126 3127 3128 3129 3130
3052 3052 3051 3050 3050 3050 3049 3049 3049 3049 3049 3049 3049 3049 3050 3050 3051 3052 3053 3053 3053 3053 3054 3054 3054 3055 3056 3057 3057 3058 3059 3060 3060 3060 3061 3062 3063 3063 3063 3064 3065 3065 3066 3067 3067 3068 3068 3069 3070 3070 3071 3071 3072 3073 3074 3075 3075 3076 3077 3078 3078 3078 3079 3079 3080 3081 3082 3083 3084 3085 3086 3088 3090 3091 3093 3094 3095 3097 3098 3100 3101 3103 3104 3105 3106 3108 3109 3110 3112 3113 3114 3114 3115 3117 3118 3120 3121 3123 3124 3125 3126 3127 3128
3049 3049 3048 3047 3046 3046 3045 3045 3045 3045 3045 3045 3045 3045 3045 3046 3046 3047 3048 3048 3049 3049 3050 3050 3051 3052 3053 3053 3054 3055 3055 3056 3056 3056 3057 3058 3059 3059 3060 3061 3061 3062 3062 3063 3064 3065 3065 3066 3067 3068 3068 3069 3070 3070 3071 3072 3073 3073 3074 3075 3075 3076 3076 3077 3078 3079 3080 3080 3081 3083 3084 3085 3087 3088 3090 3091 3093 3094 3095 3097 3098 3100 3101 3103 3104 3105 3106 3108 3109 3111 3112 3113 3114 3115 3116 3118 3119 3120 3122 3123 3124 3125 3126
3045 3045 3045 3044 3043 3042 3042 3042 3042 3042 3042 3042 3041 3041 3041 3041 3041 3042 3042 3043 3044 3045 3046 3046 3047 3047 3048 3049 3050 3051 3051 3052 3053 3053 3054 3055 3055 3056 3057 3058 3058 3058 3059 3060 3061 3061 3062 3063 3064 3065 3065 3066 3067 3067 3068 3069 3070 3071 3071 3072 3073 3074 3074 3075 3075 3076 3077 3078 3079 3080 3082 3083 3084 3085 3087 3088 3090 3091 3093 3094 3096 3097 3099 3100 3102 3103 3104 3105 3107 3108 3110 3111 3112 3113 3115 3116 3117 3119 3120 3121 3122 3123 3124
3041 3041 3041 3040 3040 3039 3039 3039 3038 3038 3039 3038 3038 3038 3038 3037 3037 3037 3037 3039 3040 3040 3042 3042 3043 3043 3043 3045 3046 3047 3047 3048 3049 3050 3050 3051 3052 3053 3054 3054 3055 3055 3056 3056 3057 3058 3059 3060 3061 3062 3063 3064 3064 3065 3065 3066 3067 3068 3069 3070 3070 3071 3072 3072 3073 3074 3075 3075 3076 3078 3079 3080 3081 3083 3084 3085 3087 3088 3090 3091 3093 3095 3096 3098 3099 3100 3102 3103 3105 3106 3107 3108 3110 3111 3112 3114 3115 3116 3117 3119 3120 3121 3122
3038 3038 3037 3037 3036 3036 3035 3035 3035 3035 3035 3035 3035 3035 3035 3034 3033 3033 3033 3034 3035 3036 3037 3038 3038 3039 3039 3040 3042 3043 3043 3045 3045 3046 3047 3047 3048 3049 3050 3050 3051 3052 3053 3053 3054 3055 3055 3057 3058 3059 3060 3061 3062 3062 3063 3064 3065 3065 3066 3067 3068 3069 3070 3070 3070 3071 3072 3073 3074 3075 3076 3078 3079 3080 3081 3082 3084 3085 3087 3089 3090 3092 3093 3095 3097 3098 3100 3101 3102 3104 3105 3106 3108 3109 3111 3112 3113 3114 3115 3117 3118 3119 3120
3035 3034 3034 3033 3033 3032 3032 3032 3031 3031 3031 3031 3031 3031 3031 3030 3030 3030 3030 3030 3030 3031 3032 3033 3034 3034 3035 3036 3037 3038 3040 3040 3041 3042 3043 3043 3044 3045 3046 3047 3047 3048 3049 3050 3050 3051 3053 3054 3055 3055 3057 3058 3059 3060 3061 3062 3062 3063 3064 3064 3065 3066 3067 3068 3068 3069 3070 3070 3071 3073 3074 3075 3076 3077 3078 3080 3081 3082 3084 3086 3087 3089 3091 3092 3094 3096 3097 3099 3100 3102 3103 3105 3106 3107 3109 3110 3111 3112 3114 3115 3116 3117 3118
3032 3031 3030 3030 3029 3029 3029 3029 3028 3028 3028 3028 3028 3028 3028 3027 3027 3026 3026 3026 3026 3026 3027 3028 3029 3030 3031 3032 3033 3034 3035 3036 3037 3038 3039 3040 3040 3041 3042 3043 3044 3045 3045 3046 3047 3048 3049 3050 3051 3052 3053 3054 3055 3057 3058 3059 3060 3060 3061 3062 3063 3064 3065 3065 3066 3067 3067 3068 3069 3070 3071 3072 3073 3074 3075 3077 3078 3079 3081 3083 3085 3086 3088 3090 3091 3093 3095 3096 3098 3099 3101 3102 3104 3105 3107 3108 3110 3111 3112 3113 3114 3115 3116
3029 3028 3027 3026 3026 3026 3025 3025 3025 3025 3025 3024 3024 3025 3024 3024 3024 3023 3023 3023 3023 3023 3022 3023 3024 3026 3027 3028 3029 3030 3031 3032 3033 3033 3034 3035 3035 3036 3037 3038 3040 3041 3042 3043 3044 3045 3046 3047 3048 3049 3050 3051 3052 3054 3055 3056 3057 3058 3059 3060 3060 3061 3062 3063 3064 3064 3065 3066 3067 3068 3069 3070 3071 3071 3072 3074 3075 3077 3078 3080 3082 3084 3085 3087 3089 3090 3092 3094 3095 3097 3098 3100 3101 3103 3105 3106 3107 3108 3110 3111 3112 3113 3115
3026 3025 3024 3023 3023 3022 3022 3022 3022 3022 3021 3021 3021 3021 3021 3021 3020 3020 3020 3019 3019 3019 3019 3019 3020 3021 3022 3023 3025 3026 3027 3027 3028 3028 3029 3030 3030 3032 3033 3035 3036 3037 3038 3039 3040 3041 3043 3044 3045 3046 3047 3048 3049 3050 3051 3053 3054 3055 3056 3057 3058 3059 3060 3060 3061 3062 3063 3063 3064 3065 3066 3068 3068 3069 3070 3071 3073 3074 3075 3077 3079 3080 3082 3084 3086 3087 3089 3091 3093 3094 3096 3098 3099 3101 3104 3105 3105 3106 3107 3109 3110 3112 3113
3023 3022 3021 3020 3020 3019 3019 3019 3019 3018 3018 3018 3018 3018 3017 3017 3017 3017 3016 3016 3016 3016 3016 3016 3016 3017 3017 3019 3020 3022 3022 3022 3023 3023 3024 3025 3027 3029 3030 3031 3032 3034 3035 3036 3037 3038 3039 3040 3041 3042 3044 3045 3046 3047 3048 3050 3050 3052 3053 3054 3055 3056 3057 3058 3059 3060 3060 3061 3062 3063 3064 3065 3066 3067 3067 3068 3070 3071 3072 3074 3076 3077 3079 3081 3083 3085 3086 3088 3090 3091 3093 3095 3097 3099 3101 3103 3103 3104 3105 3107 3108 3109 3110
3021 3020 3019 3018 3017 3016 3016 3015 3015 3015 3015 3015 3015 3014 3014 3014 3014 3014 3013 3013 3012 3012 3012 3013 3013 3013 3013 3015 3016 3017 3018 3018 3019 3019 3020 3022 3024 3025 3026 3027 3028 3030 3031 3032 3033 3034 3035 3037 3038 3039 3040 3041 3042 3044 3045 3046 3047 3049 3050 3051 3052 3054 3055 3055 3056 3057 3058 3058 3059 3060 3061 3063 3063 3064 3065 3066 3067 3068 3070 3071 3073 3075 3076 3078 3080 3081 3083 3085 3087 3089 3090 3092 3094 3096 3098 3100 3101 3101 3103 3104 3106 3107 3109
3018 3017 3016 3015 3014 3014 3013 3012 3012 3012 3012 3012 3012 3011 3011 3011 3011 3011 3010 3010 3010 3009 3009 3010 3010 3010 3010 3011 3012 3013 3014 3015 3015 3015 3017 3019 3020 3020 3021 3022 3024 3025 3026 3028 3029 3030 3031 3032 3034 3035 3036 3038 3039 3040 3041 3043 3044 3045 3047 3048 3049 3050 3052 3053 3054 3055 3055 3056 3057 3058 3059 3060 3061 3062 3063 3064 3065 3066 3067 3069 3070 3072 3073 3075 3077 3079 3080 3082 3084 3086 3088 3090 3091 3093 3095 3097 3098 3099 3100 3102 3104 3105 3107
3016 3015 3013 3013 3012 3011 3010 3010 3009 3009 3009 3009 3009 3009 3009 3008 3008 3007 3007 3007 3007 3006 3006 3006 3006 3006 3007 3007 3008 3008 3010 3011 3011 3012 3014 3015 3015 3015 3016 3017 3018 3020 3023 3024 3026 3027 3028 3029 3030 3031 3033 3034 3035 3037 3038 3040 3041 3042 3044 3045 3046 3047 3049 3050 3051 3052 3052 3053 3054 3055 3056 3057 3058 3059 3060 3061 3062 3064 3065 3066 3068 3069 3070 3072 3074 3075 3077 3080 3081 3083 3085 3087 3089 3091 3092 3094 3095 3097 3099 3100 3102 3103 3105
3014 3012 3011 3010 3009 3008 3008 3007 3007 3006 3006 3006 3006 3006 3006 3005 3005 3005 3005 3005 3004 3003 3003 3003 3003 3003 3004 3004 3005 3005 3007 3007 3008 3009 3010 3009 3010 3012 3013 3014 3015 3018 3020 3021 3022 3023 3025 3025 3026 3028 3029 3031 3032 3034 3035 3036 3038 3039 3040 3041 3042 3044 3045 3047 3048 3049 3050 3050 3051 3053 3054 3055 3055 3057 3058 3059 3060 3061 3062 3064 3065 3066 3068 3069 3070 3073 3075 3077 3079 3081 3083 3085 3086 3088 3090 3091 3093 3095 3097 3097 3099 3101 3103
3011 3010 3009 3008 3007 3006 3005 3005 3004 3004 3004 3003 3003 3003 3003 3003 3002 3002 3002 3002 3001 3001 3000 3000 3000 3000 3000 3001 3002 3003 3004 3004 3005 3005 3006 3006 3007 3009 3010 3011 3013 3014 3014 3015 3017 3019 3022 3023 3024 3025 3026 3027 3029 3030 3031 3033 3034 3035 3036 3038 3039 3040 3042 3043 3044 3045 3046 3047 3049 3050 3051 3052 3053 3054 3055 3056 3057 3059 3060 3061 3063 3064 3065 3066 3068 3070 3072 3074 3076 3078 3080 3082 3084 3085 3087 3089 3090 3092 3093 3095 3096 3099 3101
3009 3008 3006 3005 3004 3004 3003 3002 3002 3001 3001 3000 3000 3000 3000 3000 3000 2999 2999 2999 2998 2998 2998 2997 2997 2997 2997 2998 2999 3000 3000 3001 3002 3002 3003 3003 3004 3005 3006 3007 3007 3007 3008 3012 3014 3015 3018 3020 3022 3023 3023 3024 3025 3026 3027 3029 3030 3031 3033 3034 3035 3036 3038 3040 3041 3042 3043 3044 3045 3047 3048 3049 3050 3051 3052 3054 3055 3056 3057 3059 3060 3061 3063 3064 3065 3067 3069 3071 3073 3075 3077 3079 3081 3083 3084 3086 3088 3089 3090 3093 3095 3096 3098
3007 3005 3004 3003 3002 3001 3000 3000 3000 2999 2999 2998 2998 2998 2997 2997 2997 2997 2996 2996 2996 2995 2995 2995 2995 2994 2994 2994 2995 2996 2997 2998 2999 3000 3000 3000 3001 3002 3002 3001 3002 3005 3007 3010 3011 3012 3014 3018 3020 3020 3021 3022 3023 3023 3024 3025 3026 3027 3029 3030 3031 3033 3034 3036 3037 3039 3040 3041 3042 3044 3045 3046 3047 3049 3050 3051 3052 3053 3055 3056 3058 3059 3060 3061 3063 3064 3066 3068 3070 3072 3074 3076 3078 3080 3081 3083 3085 3086 3088 3090 3092 3094 3095
3005 3003 3002 3001 3000 2999 2998 2998 2997 2997 2996 2996 2995 2995 2995 2995 2995 2994 2994 2994 2993 2993 2993 2992 2992 2992 2992 2991 2991 2992 2994 2995 2996 2997 2997 2997 2998 2998 2998 2999 3001 3004 3005 3006 3007 3009 3012 3015 3015 3015 3016 3019 3022 3022 3021 3021 3022 3024 3025 3026 3027 3029 3030 3031 3033 3035 3036 3038 3039 3040 3041 3043 3044 3045 3047 3048 3049 3050 3052 3054 3055 3056 3058 3059 3060 3061 3063 3065 3067 3069 3071 3073 3075 3077 3079 3080 3082 3084 3085 3087 3089 3091 3093
3003 3001 3000 2999 2998 2997 2996 2995 2995 2994 2994 2994 2993 2993 2992 2992 2992 2992 2991 2991 2991 2990 2990 2990 2990 2989 2989 2989 2989 2989 2990 2992 2993 2994 2995 2995 2995 2996 2996 2997 2998 2998 2999 3000 3002 3004 3006 3008 3009 3010 3011 3015 3017 3018 3018 3018 3019 3020 3022 3023 3025 3026 3026 3028 3029 3031 3033 3034 3036 3037 3038 3040 3041 3042 3044 3045 3046 3048 3049 3050 3052 3054 3055 3056 3058 3059 3060 3062 3064 3066 3068 3070 3072 3074 3076 3078 3079 3081 3083 3085 3086 3088 3090
3000 2999 2998 2996 2995 2995 2994 2993 2992 2992 2991 2991 2990 2990 2990 2990 2990 2989 2989 2989 2988 2988 2987 2987 2987 2987 2987 2987 2986 2986 2987 2988 2989 2990 2991 2992 2993 2993 2994 2994 2993 2994 2995 2996 2998 3000 3002 3004 3005 3006 3005 3009 3011 3013 3014 3016 3017 3018 3019 3020 3021 3023 3024 3024 3025 3027 3029 3030 3032 3033 3035 3036 3038 3039 3040 3042 3043 3045 3046 3048 3049 3051 3052 3054 3055 3056 3058 3060 3061 3063 3065 3067 3069 3071 3073 3075 3077 3078 3080 3082 3084 3086 3088
2998 2997 2995 2994 2993 2992 2991 2990 2990 2989 2989 2988 2988 2988 2987 2987 2987 2987 2986 2986 2986 2985 2985 2985 2985 2984 2984 2984 2984 2984 2984 2985 2986 2987 2988 2989 2990 2990 2991 2990 2991 2992 2993 2993 2995 2996 2997 2999 3000 3000 3001 3005 3007 3009 3011 3012 3014 3015 3016 3017 3018 3019 3020 3021 3022 3024 3025 3027 3029 3030 3032 3033 3035 3036 3037 3039 3040 3041 3043 3045 3046 3048 3049 3051 3052 3054 3055 3057 3059 3060 3062 3065 3066 3069 3070 3072 3074 3075 3077 3079 3081 3083 3085
2996 2994 2993 2992 2991 2990 2989 2988 2987 2987 2986 2986 2985 2985 2985 2985 2984 2984 2984 2983 2983 2983 2983 2982 2982 2982 2982 2982 2982 2981 2981 2982 2983 2984 2985 2985 2986 2987 2988 2988 2988 2989 2989 2989 2990 2992 2993 2995 2996 2997 3000 3001 3001 3003 3007 3008 3010 3011 3013 3014 3015 3017 3017 3018 3019 3020 3022 3024 3025 3027 3029 3030 3031 3032 3034 3035 3037 3039 3040 3041 3043 3045 3046 3048 3050 3051 3053 3055 3056 3058 3060 3062 3064 3066 3068 3070 3071 3073 3075 3076 3078 3080 3083
2993 2992 2991 2990 2989 2988 2986 2985 2985 2984 2984 2983 2983 2982 2982 2982 2981 2981 2981 2980 2980 2980 2980 2980 2979 2979 2979 2979 2979 2979 2978 2979 2980 2981 2982 2982 2982 2983 2985 2985 2985 2985 2986 2987 2988 2989 2990 2991 2992 2994 2996 2996 2996 2998 3001 3003 3005 3007 3009 3010 3012 3013 3014 3015 3016 3017 3019 3020 3022 3024 3025 3026 3028 3029 3030 3032 3034 3035 3037 3038 3040 3041 3043 3045 3046 3048 3050 3052 3053 3055 3057 3059 3061 3063 3065 3067 3068 3070 3072 3073 3075 3077 3080